Dickinson, ND

2:37 PM MST on November 24, 2017 (GMT -0700)
Dickinson Municipal

Weather History for KDIK - February, 2013

Change the Weather History Date:

Wednesday, February 20, 2013

  Actual Average Record
Temperature  
Mean Temperature 11 °F 22 °F  
Max Temperature 21 °F 32 °F 57 °F (1984)
Min Temperature 1 °F 11 °F -37 °F (1918)
Degree Days  
Heating Degree Days 54 43  
Month to date heating degree days 805 910  
Since 1 July heating degree days 5685 5957  
Cooling Degree Days 0 0  
Month to date cooling degree days 0 0  
Year to date cooling degree days 0 0  
Moisture  
Dew Point 2 °F    
Average Humidity 62    
Maximum Humidity 79    
Minimum Humidity 45    
Precipitation  
Precipitation 0.00 in 0.01 in 0.19 in (1993)
Month to date precipitation T 0.20  
Year to date precipitation 0.08 0.50  
Sea Level Pressure  
Sea Level Pressure 30.11 in    
Wind  
Wind Speed 20 mph (SE)    
Max Wind Speed 28 mph    
Max Gust Speed 35 mph    
Visibility 9 miles    
Events Snow    
T = Trace of Precipitation, MM = Missing Value Source: NWS Daily Summary

Daily Weather History Graph

Daily Weather History Graph

Search for Another Location

Airport or City:

Trip Planner

Search our weather history database for the weather conditions in past years. The results will help you decide how hot, cold, wet, or windy it might be!

Date:

Astronomy

Feb. 20, 2013 Rise Set
Actual Time 6:46 AM MST 5:24 PM MST
Civil Twilight 6:15 AM MST 5:54 PM MST
Nautical Twilight 5:40 AM MST 6:30 PM MST
Astronomical Twilight 5:05 AM MST 7:05 PM MST
Moon 12:36 PM MST (2/20) 3:19 AM MST (2/20)
Length of Visible Light 11h 39m
Length of Day
10h 37m
Waxing Gibbous, 76% of the Moon is Illuminated
Feb 20
Waxing Gibbous
Feb 25
Full
Mar 4
Last Quarter
Mar 11
New
Mar 19
First Quarter

Hourly Weather History & Observations

Time (MST) Temp. Windchill Dew Point Humidity Pressure Visibility Wind Dir Wind Speed Gust Speed Precip Events Conditions
12:56 AM 1.9 °F -20.2 °F -4.0 °F 76% 30.23 in 10.0 mi SE 21.9 mph 29.9 mph N/A   Clear
1:56 AM 3.0 °F -17.3 °F -4.0 °F 73% 30.20 in 10.0 mi SE 18.4 mph 29.9 mph N/A   Clear
2:56 AM 3.0 °F -18.8 °F -5.1 °F 69% 30.18 in 10.0 mi SE 21.9 mph 34.5 mph N/A   Clear
3:56 AM 1.9 °F -18.7 °F -5.1 °F 72% 30.18 in 10.0 mi SE 18.4 mph 27.6 mph N/A   Clear
4:56 AM 1.9 °F -21.6 °F -6.0 °F 69% 30.17 in 10.0 mi SE 25.3 mph 32.2 mph N/A   Clear
5:56 AM 1.0 °F -20.4 °F -6.0 °F 72% 30.17 in 10.0 mi SE 19.6 mph - N/A   Clear
6:56 AM 1.9 °F -18.7 °F -6.0 °F 69% 30.17 in 10.0 mi SE 18.4 mph - N/A   Clear
7:56 AM 3.9 °F -16.6 °F -5.1 °F 66% 30.17 in 10.0 mi SE 19.6 mph 27.6 mph N/A   Clear
8:56 AM 7.0 °F -13.6 °F -4.0 °F 61% 30.17 in 10.0 mi SE 21.9 mph 27.6 mph N/A   Clear
9:56 AM 10.0 °F -9.1 °F -2.0 °F 58% 30.15 in 10.0 mi SE 20.7 mph 26.5 mph N/A   Clear
10:56 AM 14.0 °F -3.4 °F -0.0 °F 54% 30.14 in 10.0 mi SSE 19.6 mph - N/A   Clear
11:56 AM 17.1 °F -0.3 °F -0.0 °F 47% 30.11 in 10.0 mi SSE 21.9 mph - N/A   Clear
12:56 PM 17.1 °F 0.1 °F 1.0 °F 50% 30.09 in 10.0 mi SSE 20.7 mph 29.9 mph N/A   Clear
1:56 PM 19.0 °F 2.7 °F 1.9 °F 47% 30.06 in 10.0 mi SE 20.7 mph 26.5 mph N/A   Clear
2:56 PM 21.0 °F 7.6 °F 3.0 °F 46% 30.06 in 10.0 mi SE 15.0 mph - N/A   Clear
3:56 PM 21.0 °F 7.6 °F 3.0 °F 46% 30.06 in 10.0 mi SSE 15.0 mph - N/A   Clear
4:56 PM 19.0 °F 5.0 °F 3.9 °F 52% 30.06 in 10.0 mi SE 15.0 mph - N/A   Clear
5:56 PM 16.0 °F 2.3 °F 3.9 °F 59% 30.08 in 10.0 mi SE 12.7 mph - N/A   Clear
6:56 PM 16.0 °F -0.4 °F 5.0 °F 62% 30.09 in 10.0 mi SE 18.4 mph - N/A   Clear
7:56 PM 16.0 °F -0.9 °F 7.0 °F 68% 30.09 in 10.0 mi SSE 19.6 mph - N/A   Partly Cloudy
8:56 PM 15.1 °F -2.0 °F 9.0 °F 77% 30.09 in 10.0 mi SSE 19.6 mph 24.2 mph N/A   Overcast
9:56 PM 16.0 °F -0.9 °F 10.9 °F 81% 30.09 in 3.0 mi SSE 19.6 mph - 0.00 in Snow Light Snow
10:56 PM 15.1 °F 0.5 °F 10.0 °F 80% 30.09 in 10.0 mi SE 13.8 mph - 0.00 in   Overcast
11:17 PM 15.8 °F 0.9 °F 10.4 °F 79% 29.95 in 2.5 mi SSE 15.0 mph - 0.00 in Snow Light Snow
11:41 PM 15.8 °F 0.9 °F 10.4 °F 79% 29.95 in 4.0 mi SSE 15.0 mph - 0.00 in Snow Light Snow
11:56 PM 15.1 °F -0.1 °F 10.0 °F 80% 30.09 in 7.0 mi SE 15.0 mph - 0.00 in Snow Light Snow